Total_Precipitation_Accumulation
0.02 0.02 0.03 0.03 0.04 0.04 0.02 0.02 0.01 0.00 0.00 0.00 0.00 0.00 0.00 0.00 0.00 0.00 0.00 0.00 0.00 0.00 0.00 0.00 0.00 0.00 0.00 0.00 0.00 0.00 0.00 0.00
0.02 0.03 0.05 0.10 0.13 0.10 0.06 0.02 0.06 0.04 0.03 0.00 0.01 0.00 0.00 0.00 0.00 0.00 0.00 0.00 0.00 0.00 0.00 0.00 0.00 0.00 0.00 0.00 0.00 0.00 0.00 0.00
0.03 0.04 0.05 0.09 0.15 0.11 0.14 0.04 0.05 0.08 0.08 0.05 0.04 0.02 0.02 0.05 0.05 0.00 0.01 0.01 0.00 0.00 0.00 0.00 0.00 0.00 0.00 0.00 0.00 0.00 0.00 0.00
0.03 0.03 0.04 0.09 0.09 0.06 0.12 0.06 0.04 0.02 0.04 0.04 0.06 0.06 0.08 0.11 0.10 0.04 0.03 0.01 0.00 0.00 0.00 0.00 0.00 0.00 0.00 0.00 0.00 0.00 0.00 0.00
0.02 0.03 0.04 0.08 0.05 0.07 0.08 0.04 0.03 0.02 0.04 0.03 0.03 0.07 0.07 0.12 0.12 0.05 0.02 0.01 0.00 0.00 0.00 0.00 0.00 0.00 0.00 0.00 0.00 0.00 0.00 0.00
0.01 0.03 0.04 0.07 0.03 0.03 0.06 0.04 0.06 0.05 0.05 0.04 0.04 0.11 0.20 0.26 0.26 0.21 0.07 0.01 0.00 0.00 0.00 0.00 0.00 0.00 0.00 0.00 0.00 0.00 0.00 0.00
0.01 0.02 0.04 0.04 0.02 0.01 0.02 0.04 0.05 0.04 0.08 0.04 0.04 0.15 0.32 0.37 0.43 0.48 0.30 0.10 0.02 0.00 0.00 0.00 0.00 0.00 0.00 0.00 0.00 0.00 0.00 0.00
0.01 0.03 0.03 0.03 0.02 0.02 0.03 0.03 0.03 0.06 0.08 0.08 0.07 0.20 0.35 0.40 0.43 0.50 0.38 0.15 0.06 0.01 0.00 0.00 0.00 0.00 0.00 0.00 0.00 0.00 0.00 0.00
0.00 0.01 0.02 0.04 0.05 0.06 0.06 0.06 0.04 0.09 0.17 0.21 0.22 0.20 0.27 0.40 0.43 0.47 0.39 0.20 0.10 0.02 0.01 0.00 0.00 0.00 0.00 0.00 0.02 0.00 0.00 0.00
0.01 0.01 0.02 0.11 0.17 0.21 0.20 0.26 0.29 0.41 0.62 0.63 0.49 0.58 0.65 0.66 0.48 0.46 0.48 0.35 0.10 0.02 0.01 0.02 0.01 0.00 0.01 0.01 0.01 0.00 0.00 0.00
0.00 0.04 0.01 0.07 0.19 0.27 0.33 0.44 0.50 0.63 0.84 0.90 0.94 1.25 1.43 1.24 1.10 1.06 0.85 0.52 0.27 0.12 0.02 0.01 0.01 0.00 0.00 0.00 0.00 0.00 0.00 0.00
0.00 0.03 0.03 0.13 0.24 0.27 0.36 0.37 0.38 0.41 0.48 0.58 0.59 0.63 0.73 0.97 1.21 1.05 1.16 1.13 0.87 0.59 0.24 0.07 0.01 0.00 0.00 0.00 0.00 0.00 0.00 0.00
0.00 0.01 0.05 0.25 0.32 0.31 0.38 0.35 0.37 0.47 0.38 0.51 0.56 0.44 0.44 0.56 0.84 1.25 1.45 1.25 1.30 1.21 0.76 0.40 0.15 0.03 0.01 0.00 0.01 0.00 0.00 0.00
0.01 0.07 0.19 0.33 0.39 0.40 0.40 0.39 0.40 0.50 0.68 0.63 0.64 0.61 0.53 0.43 0.48 0.56 0.56 0.73 0.66 0.51 0.53 0.58 0.45 0.20 0.04 0.02 0.03 0.03 0.02 0.01
0.07 0.16 0.30 0.33 0.38 0.35 0.34 0.50 0.53 0.50 0.51 0.52 0.56 0.65 0.67 0.55 0.52 0.61 0.57 0.47 0.37 0.39 0.41 0.40 0.34 0.25 0.14 0.05 0.02 0.00 0.01 0.01
0.14 0.13 0.15 0.16 0.20 0.26 0.28 0.29 0.25 0.23 0.25 0.32 0.35 0.52 0.90 1.16 1.14 1.09 1.10 1.16 0.96 0.68 0.50 0.47 0.45 0.40 0.18 0.05 0.02 0.01 0.00 0.00
0.04 0.10 0.04 0.04 0.17 0.19 0.16 0.17 0.15 0.14 0.16 0.21 0.33 0.49 0.69 1.01 1.15 1.12 1.17 1.19 1.04 0.99 0.78 0.67 0.59 0.42 0.32 0.14 0.03 0.01 0.00 0.00
0.00 0.02 0.06 0.05 0.10 0.21 0.29 0.29 0.20 0.12 0.10 0.10 0.13 0.20 0.40 0.72 0.90 0.97 0.97 0.91 0.96 0.81 0.53 0.43 0.47 0.50 0.37 0.25 0.11 0.04 0.02 0.00
0.00 0.00 0.02 0.06 0.06 0.08 0.16 0.23 0.25 0.25 0.25 0.24 0.19 0.13 0.10 0.19 0.41 0.56 0.80 0.83 0.73 0.72 0.71 0.61 0.48 0.38 0.36 0.31 0.12 0.06 0.04 0.03
0.00 0.00 0.00 0.01 0.02 0.03 0.04 0.05 0.10 0.12 0.12 0.14 0.19 0.22 0.18 0.12 0.09 0.11 0.23 0.55 0.78 0.84 0.72 0.63 0.64 0.50 0.38 0.26 0.24 0.11 0.09 0.03